Weather History for KAPA - March, 2013

Change the Weather History Date:

Thursday, March 14, 2013

  Actual Average (KDEN) Record (KDEN)
Temperature  
Mean Temperature 52 °F 40 °F  
Max Temperature 69 °F 54 °F 78 °F (1935)
Min Temperature 35 °F 26 °F -10 °F (1880)
Degree Days  
Heating Degree Days 13 25  
Month to date heating degree days 390 376  
Since 1 July heating degree days 4815  
Cooling Degree Days 0 0  
Month to date cooling degree days 0 0  
Year to date cooling degree days 0  
Growing Degree Days 1 (Base 50)    
Moisture  
Dew Point 22 °F    
Average Humidity 39    
Maximum Humidity 64    
Minimum Humidity 14    
Precipitation  
Precipitation 0.00 in 0.03 in 0.60 in (1923)
Month to date precipitation 0.56 0.33  
Year to date precipitation 1.25 1.11  
Snow  
Snow 0.00 in - - ()
Month to date snowfall  
Since 1 July snowfall  
Snow Depth -    
Sea Level Pressure  
Sea Level Pressure 30.18 in    
Wind  
Wind Speed 5 mph (SSW)    
Max Wind Speed 15 mph    
Max Gust Speed 18 mph    
Visibility 10 miles    
Events      
T = Trace of Precipitation, MM = Missing Value Source: NWS Daily Summary

Daily Weather History Graph

Daily Weather History Graph

Search for Another Location

Airport or City:

Trip Planner

Search our weather history database for the weather conditions in past years. The results will help you decide how hot, cold, wet, or windy it might be!

Date:

Astronomy

Mar. 14, 2013 Rise Set
Actual Time 7:11 AM MDT 7:05 PM MDT
Civil Twilight 6:45 AM MDT 7:32 PM MDT
Nautical Twilight 6:13 AM MDT 8:03 PM MDT
Astronomical Twilight 5:42 AM MDT 8:35 PM MDT
Moon 8:28 AM MDT (3/14) 10:23 PM MDT (3/14)
Length of Visible Light 12h 47m
Length of Day
11h 53m
Waxing Crescent, 9% of the Moon is Illuminated
Mar 14
Waxing Crescent
Mar 19
First Quarter
Mar 27
Full
Apr 2
Last Quarter
Apr 10
New

Hourly Weather History & Observations

Time (MDT) Temp. Windchill Dew Point Humidity Pressure Visibility Wind Dir Wind Speed Gust Speed Precip Events Conditions
12:53 AM 37.9 °F 34.4 °F 26.1 °F 62% 30.23 in 10.0 mi SSE 4.6 mph - N/A   Partly Cloudy
1:53 AM 37.0 °F 31.6 °F 25.0 °F 62% 30.23 in 10.0 mi SE 6.9 mph - N/A   Clear
2:53 AM 37.9 °F 33.5 °F 24.1 °F 57% 30.22 in 10.0 mi SSW 5.8 mph - N/A   Clear
3:53 AM 37.9 °F 32.7 °F 25.0 °F 60% 30.19 in 10.0 mi SSW 6.9 mph - N/A   Clear
4:53 AM 39.9 °F 34.5 °F 23.0 °F 51% 30.19 in 10.0 mi WSW 8.1 mph - N/A   Partly Cloudy
5:53 AM 41.0 °F 38.0 °F 21.9 °F 47% 30.22 in 10.0 mi South 4.6 mph - N/A   Scattered Clouds
6:53 AM 36.0 °F - 24.1 °F 62% 30.26 in 10.0 mi Calm Calm - N/A   Scattered Clouds
7:53 AM 37.9 °F 34.4 °F 26.1 °F 62% 30.28 in 10.0 mi ESE 4.6 mph - N/A   Scattered Clouds
8:53 AM 48.9 °F - 27.0 °F 43% 30.30 in 10.0 mi South 4.6 mph - N/A   Scattered Clouds
9:53 AM 55.9 °F - 19.9 °F 25% 30.26 in 10.0 mi Calm Calm - N/A   Scattered Clouds
11:53 AM 60.1 °F - 23.0 °F 24% 30.22 in 10.0 mi ESE 6.9 mph - N/A   Mostly Cloudy
12:53 PM 63.0 °F - 21.0 °F 20% 30.21 in 10.0 mi Calm Calm - N/A   Mostly Cloudy
1:53 PM 64.9 °F - 21.9 °F 19% 30.17 in 10.0 mi Variable 4.6 mph - N/A   Mostly Cloudy
2:53 PM 66.9 °F - 21.9 °F 18% 30.13 in 10.0 mi East 8.1 mph - N/A   Mostly Cloudy
3:53 PM 66.9 °F - 19.9 °F 17% 30.11 in 10.0 mi Calm Calm - N/A   Mostly Cloudy
4:53 PM 66.0 °F - 19.9 °F 17% 30.11 in 10.0 mi WSW 6.9 mph - N/A   Mostly Cloudy
5:53 PM 66.0 °F - 15.1 °F 14% 30.10 in 10.0 mi NW 5.8 mph - N/A   Mostly Cloudy
6:53 PM 61.0 °F - 15.1 °F 17% 30.14 in 10.0 mi NNW 9.2 mph - N/A   Mostly Cloudy
7:53 PM 60.1 °F - 12.9 °F 16% 30.14 in 10.0 mi NW 3.5 mph - N/A   Mostly Cloudy
8:53 PM 55.9 °F - 18.0 °F 23% 30.12 in 10.0 mi WNW 3.5 mph - N/A   Scattered Clouds
9:53 PM 48.9 °F - 24.1 °F 38% 30.13 in 10.0 mi SSW 5.8 mph - N/A   Scattered Clouds
10:53 PM 44.1 °F 40.1 °F 24.1 °F 45% 30.13 in 10.0 mi South 6.9 mph - N/A   Scattered Clouds
11:53 PM 46.0 °F 40.2 °F 23.0 °F 40% 30.10 in 10.0 mi SSW 12.7 mph - N/A   Scattered Clouds